K6GMW Weather Reports


time (UTC)temp
F
wind
direction
speed
knots
gust
knots
rain 1hr
in
rain 24hr
in
rain mn
in
humidity
%
barometer
mb
20260502152241 69 161 2.6 3.5 0.00 0.00 0.00 59 1022.3
20260502151738 69 156 4.3 6.1 0.00 0.00 0.00 58 1022.4
20260502151235 69 143 1.7 2.6 0.00 0.00 0.00 60 1022.1
20260502150733 68 11 1.7 2.6 0.00 0.00 0.00 67 1022.1
20260502150230 67 233 0.0 3.5 0.00 0.00 0.00 63 1022.1
20260502130618 55 338 0.9 1.7 0.00 0.00 0.00 94 1021.4
20260502130116 55 315 1.7 3.5 0.00 0.00 0.00 95 1021.4
20260502123601 51 116 0.9 1.7 0.00 0.00 0.00 98 1021.2
20260502123057 50 54 2.6 2.6 0.00 0.00 0.00 98 1021.2
20260502122554 50 99 0.0 1.7 0.00 0.00 0.00 98 1021.5
20260502122051 49 206 1.7 1.7 0.00 0.00 0.00 98 1021.5
20260502121549 49 174 0.9 1.7 0.00 0.00 0.00 98 1021.1
20260502121046 49 208 1.7 2.6 0.00 0.00 0.00 98 1021.0
20260502120542 49 190 0.9 1.7 0.00 0.00 0.00 98 1020.9
20260502115538 49 179 0.9 1.7 0.00 0.00 0.00 98 1020.4
20260502115033 49 221 1.7 1.7 0.00 0.00 0.00 98 1020.1
20260502114530 49 156 0.0 1.7 0.00 0.00 0.00 98 1020.2
20260502114026 49 170 1.7 1.7 0.00 0.00 0.00 98 1020.1
20260502113524 49 176 0.9 1.7 0.00 0.00 0.00 98 1020.0
20260502113023 49 126 0.9 1.7 0.00 0.00 0.00 98 1019.8
20260502112520 49 123 1.7 2.6 0.00 0.00 0.00 98 1019.9
20260502112017 49 127 0.9 0.9 0.00 0.00 0.00 97 1019.7
20260502111515 49 160 1.7 1.7 0.00 0.00 0.00 97 1019.8
20260502111012 49 148 0.0 0.9 0.00 0.00 0.00 98 1019.7
20260502110509 49 194 0.0 0.9 0.00 0.00 0.00 97 1019.9
20260502110007 50 206 0.0 0.9 0.00 0.00 0.00 97 1019.5
20260502105504 50 334 0.0 0.9 0.00 0.00 0.00 97 1019.8
20260502105001 50 180 0.0 0.0 0.00 0.00 0.00 97 1019.7
20260502104459 50 196 0.9 0.9 0.00 0.00 0.00 97 1019.8
20260502103956 50 197 0.9 1.7 0.00 0.00 0.00 97 1019.8
20260502103453 50 229 0.9 1.7 0.00 0.00 0.00 97 1019.8
20260502102950 50 180 1.7 1.7 0.00 0.00 0.00 97 1019.7
20260502102447 50 212 0.9 0.9 0.00 0.00 0.00 97 1019.6
20260502101944 50 224 0.0 0.0 0.00 0.00 0.00 97 1019.8
20260502101442 51 207 0.9 1.7 0.00 0.00 0.00 97 1019.5
20260502100940 51 215 0.0 0.0 0.00 0.00 0.00 97 1019.6
20260502100439 51 285 0.0 2.6 0.00 0.00 0.00 97 1019.5
20260502091414 51 275 0.0 0.9 0.00 0.00 0.00 96 1019.2
20260502090910 52 327 0.0 0.9 0.00 0.00 0.00 96 1019.2
20260502090408 52 32 0.0 0.0 0.00 0.00 0.00 96 1019.3
20260502071302 54 335 1.7 2.6 0.00 0.00 0.00 93 1019.1
20260502070801 54 305 0.0 1.7 0.00 0.00 0.00 93 1019.4
20260502070258 54 269 0.0 1.7 0.00 0.00 0.00 93 1019.2
20260502065756 54 246 1.7 1.7 0.00 0.00 0.00 92 1019.2
20260502065254 54 244 0.0 2.6 0.00 0.00 0.00 91 1019.4
20260502064752 54 239 0.9 1.7 0.00 0.00 0.00 91 1019.6
20260502064249 54 186 0.0 1.7 0.00 0.00 0.00 90 1019.3
20260502063747 54 256 0.0 0.0 0.00 0.00 0.00 90 1019.1
20260502063245 55 301 0.9 0.9 0.00 0.00 0.00 90 1019.4
20260502062741 55 313 0.9 1.7 0.00 0.00 0.00 90 1019.3
20260502062239 55 353 1.7 3.5 0.00 0.00 0.00 90 1019.3
20260502061737 54 292 1.7 3.5 0.00 0.00 0.00 91 1019.3
20260502061235 54 293 2.6 2.6 0.00 0.00 0.00 91 1019.4
20260502060730 54 301 0.9 1.7 0.00 0.00 0.00 91 1019.1
20260502060226 54 311 1.7 2.6 0.00 0.00 0.00 91 1019.1
20260502055724 54 335 1.7 2.6 0.00 0.10 0.10 91 1019.2
20260502055222 54 352 1.7 3.5 0.00 0.10 0.10 92 1019.1
20260502054721 54 331 0.9 1.7 0.00 0.10 0.10 92 1019.1
20260502054218 54 342 1.7 2.6 0.00 0.10 0.10 92 1019.3
20260502053715 54 0 1.7 3.5 0.00 0.10 0.10 92 1019.4
20260502053212 54 328 1.7 4.3 0.00 0.10 0.10 93 1019.5
20260502052710 54 351 2.6 4.3 0.02 0.10 0.10 93 1019.4
20260502052208 54 310 2.6 6.1 0.02 0.10 0.10 94 1019.3
20260502051706 54 319 2.6 3.5 0.00 0.10 0.10 95 1019.4
20260502051204 54 310 0.9 1.7 0.00 0.10 0.10 95 1019.4
20260502050700 54 340 1.7 2.6 0.00 0.10 0.10 95 1019.3
20260502050156 54 321 2.6 2.6 0.00 0.10 0.10 95 1019.3
20260502045653 54 311 0.0 2.6 0.00 0.10 0.10 95 1019.3
20260502045151 54 335 0.9 1.7 0.00 0.10 0.10 95 1019.2
20260502044647 54 334 0.0 1.7 0.00 0.10 0.10 95 1019.3
20260502044143 54 348 0.0 1.7 0.00 0.10 0.10 95 1019.3
20260502043641 54 306 1.7 2.6 0.00 0.10 0.10 95 1019.2
20260502043139 54 269 0.0 1.7 0.00 0.10 0.10 95 1019.1
20260502042638 54 291 0.9 1.7 0.00 0.10 0.10 95 1019.1
20260502042135 54 252 0.0 1.7 0.00 0.10 0.10 94 1019.1
20260502041633 54 224 0.0 0.9 0.00 0.10 0.10 94 1019.2
20260502041130 54 13 0.9 1.7 0.00 0.10 0.10 94 1019.2
20260502040626 54 309 0.0 0.9 0.00 0.10 0.10 94 1019.3
20260502040124 55 287 2.6 3.5 0.00 0.10 0.10 94 1019.2
20260502035620 55 6 0.0 0.0 0.00 0.10 0.10 94 1019.0
20260502035117 55 224 0.0 0.0 0.00 0.10 0.10 94 1018.9
20260502034615 55 252 0.0 1.7 0.00 0.10 0.10 94 1018.9
20260502034113 55 240 0.0 1.7 0.00 0.10 0.10 94 1018.9
20260502033611 55 238 0.0 0.9 0.00 0.10 0.10 94 1018.8
20260502033108 55 75 0.0 0.9 0.00 0.10 0.10 94 1018.8
20260502032603 55 340 0.0 0.9 0.00 0.10 0.10 94 1018.6
20260502032100 55 10 0.0 1.7 0.00 0.10 0.10 94 1018.8
20260502031558 55 60 0.0 0.0 0.00 0.10 0.10 94 1018.5
20260502031056 55 337 0.0 1.7 0.00 0.10 0.10 94 1018.4
20260502030555 55 232 0.0 0.0 0.00 0.10 0.10 94 1018.5
20260502030052 55 339 0.0 1.7 0.00 0.10 0.10 94 1018.6
20260502025549 55 288 1.7 2.6 0.00 0.10 0.10 94 1018.5
20260502025047 56 276 0.9 1.7 0.00 0.10 0.10 94 1018.4
20260502024544 56 13 0.0 0.9 0.00 0.10 0.10 94 1018.2
20260502024043 55 246 0.0 0.9 0.00 0.10 0.10 94 1018.5
20260502023540 55 215 1.7 1.7 0.00 0.10 0.10 94 1018.3
20260502023037 55 49 0.0 0.9 0.00 0.10 0.10 94 1018.4
20260502022534 56 37 0.0 1.7 0.00 0.10 0.10 94 1018.6
20260502022032 55 212 0.0 0.9 0.00 0.10 0.10 93 1018.6
20260502021529 56 231 1.7 2.6 0.00 0.10 0.10 93 1018.6
20260502021025 56 240 1.7 1.7 0.00 0.10 0.10 93 1018.8
20260502020523 56 258 1.7 1.7 0.00 0.10 0.10 93 1018.2
20260502020020 56 22 0.0 0.9 0.00 0.10 0.10 92 1017.9
20260502015518 56 146 0.0 1.7 0.00 0.10 0.10 92 1018.0
20260502015014 56 140 1.7 1.7 0.00 0.10 0.10 92 1017.8
20260502014511 56 138 1.7 2.6 0.00 0.10 0.10 91 1017.8
20260502014008 56 127 1.7 1.7 0.00 0.10 0.10 91 1017.7
20260502013503 57 299 0.9 1.7 0.00 0.10 0.10 90 1018.0
20260502013000 57 122 0.0 3.5 0.00 0.10 0.10 88 1017.8
20260502012457 57 83 1.7 2.6 0.00 0.10 0.10 89 1017.6
20260502011955 56 223 1.7 1.7 0.00 0.10 0.10 89 1017.3
20260502011450 56 32 0.0 1.7 0.00 0.10 0.10 89 1017.2
20260502010948 57 53 0.0 0.9 0.00 0.10 0.10 89 1016.9
20260502010445 57 116 1.7 2.6 0.00 0.10 0.10 89 1016.9
20260502005940 57 140 3.5 4.3 0.00 0.10 0.10 90 1017.3
20260502005439 57 133 2.6 3.5 0.00 0.10 0.10 89 1017.2
20260502004937 57 131 1.7 2.6 0.00 0.10 0.10 89 1017.3
20260502004432 57 131 1.7 3.5 0.00 0.10 0.10 89 1017.5
20260502003929 57 141 2.6 3.5 0.00 0.10 0.10 88 1017.6
20260502003427 57 35 0.0 0.9 0.00 0.10 0.10 88 1017.4
20260502002923 57 129 0.0 1.7 0.00 0.10 0.10 86 1017.1
20260502002420 57 152 0.9 1.7 0.00 0.10 0.10 86 1017.1
20260502001918 58 136 0.0 2.6 0.00 0.10 0.10 86 1017.2
20260502001415 58 131 0.9 2.6 0.00 0.10 0.10 87 1017.0
20260502000913 58 155 0.9 1.7 0.00 0.10 0.10 85 1017.1
20260502000411 58 83 0.9 1.7 0.00 0.10 0.10 84 1017.2
20260501235906 58 10 2.6 3.5 0.00 0.10 0.10 83 1017.1
20260501235402 58 11 0.0 0.9 0.00 0.10 0.10 82 1017.3
20260501234858 58 50 0.0 0.9 0.00 0.10 0.10 82 1017.2
20260501234355 58 230 0.0 0.9 0.00 0.10 0.10 83 1017.1
20260501233853 58 63 0.9 1.7 0.00 0.10 0.10 82 1016.8
20260501233350 58 132 0.9 3.5 0.02 0.10 0.10 83 1016.5
20260501232846 58 153 0.0 1.7 0.02 0.10 0.10 83 1016.7
20260501232343 59 39 1.7 2.6 0.00 0.09 0.09 83 1017.0
20260501231841 59 349 0.9 1.7 0.00 0.09 0.09 79 1017.2
20260501231338 59 60 0.0 1.7 0.00 0.09 0.09 78 1017.2
20260501230837 60 148 0.9 1.7 0.00 0.09 0.09 77 1017.0
20260501230336 60 127 1.7 1.7 0.00 0.09 0.09 75 1016.9
20260501225832 60 129 0.9 2.6 0.00 0.09 0.09 72 1016.8
20260501225330 60 172 0.0 2.6 0.00 0.09 0.09 71 1016.6
20260501224826 60 103 0.0 1.7 0.00 0.09 0.09 71 1016.3
20260501224324 61 132 0.9 3.5 0.00 0.09 0.09 72 1016.5
20260501223820 61 62 0.9 4.3 0.00 0.09 0.09 69 1016.5
20260501223316 61 33 3.5 3.5 0.00 0.09 0.09 69 1016.4
20260501222812 61 40 1.7 2.6 0.00 0.09 0.09 70 1016.4
20260501222309 61 54 1.7 5.2 0.00 0.09 0.09 69 1016.2
20260501221806 61 27 1.7 6.1 0.00 0.09 0.09 69 1015.7
20260501221303 61 23 2.6 6.1 0.00 0.09 0.09 69 1015.5
20260501220801 61 170 0.0 2.6 0.00 0.09 0.09 70 1015.2
20260501220258 61 46 1.7 3.5 0.00 0.09 0.09 70 1015.3
20260501215755 62 61 1.7 6.1 0.00 0.09 0.09 71 1014.9
20260501215250 62 65 2.6 8.7 0.00 0.09 0.09 69 1015.0
20260501214746 62 25 4.3 7.8 0.00 0.09 0.09 69 1015.2
20260501214242 62 16 3.5 5.2 0.00 0.09 0.09 71 1015.2
20260501213738 62 104 1.7 2.6 0.00 0.09 0.09 70 1015.4
20260501213234 62 201 0.0 2.6 0.00 0.09 0.09 71 1015.4
20260501212731 61 155 1.7 3.5 0.00 0.09 0.09 71 1015.4
20260501212227 61 84 2.6 2.6 0.00 0.09 0.09 70 1015.6
20260501211724 61 46 1.7 2.6 0.00 0.09 0.09 71 1015.7
20260501211221 61 65 1.7 3.5 0.00 0.09 0.09 70 1016.0
20260501210718 60 71 3.5 4.3 0.00 0.09 0.09 68 1016.2
20260501210215 60 19 5.2 6.1 0.00 0.09 0.09 69 1016.4
20260501205711 61 71 4.3 7.0 0.00 0.09 0.09 69 1016.9
20260501205208 61 25 0.9 3.5 0.00 0.09 0.09 71 1016.9
20260501204706 61 16 5.2 8.7 0.00 0.09 0.09 69 1016.9
20260501204202 61 35 3.5 5.2 0.00 0.09 0.09 69 1016.5
20260501203658 61 14 4.3 5.2 0.00 0.09 0.09 69 1016.2
20260501203156 61 27 1.7 4.3 0.00 0.09 0.09 70 1016.2
20260501202653 62 18 13.0 13.0 0.00 0.09 0.09 68 1015.9
20260501202150 62 19 1.7 7.0 0.00 0.09 0.09 71 1015.9
20260501201647 62 54 2.6 6.1 0.00 0.09 0.09 69 1015.5
20260501201143 61 353 2.6 5.2 0.00 0.09 0.09 72 1015.2
20260501200640 61 286 1.7 8.7 0.00 0.09 0.09 72 1015.4
20260501200137 61 88 1.7 9.6 0.00 0.09 0.09 71 1015.2
20260501195635 61 20 7.0 7.0 0.00 0.09 0.09 71 1015.0
20260501195130 61 7 6.1 8.7 0.00 0.09 0.09 77 1015.0
20260501194626 62 2 3.5 10.4 0.00 0.09 0.09 76 1015.2
20260501194122 62 52 3.5 4.3 0.00 0.09 0.09 77 1015.5
20260501193619 62 42 1.7 4.3 0.00 0.09 0.09 77 1015.5
20260501193118 61 78 2.6 11.3 0.00 0.09 0.09 79 1015.5
20260501192614 60 17 4.3 6.1 0.00 0.09 0.09 80 1015.4
20260501192112 59 21 2.6 12.2 0.00 0.09 0.09 84 1015.4
20260501191609 59 118 0.9 5.2 0.00 0.09 0.09 82 1015.7
20260501191106 59 303 1.7 7.8 0.00 0.09 0.09 82 1016.1
20260501190602 59 125 1.7 5.2 0.00 0.09 0.09 85 1016.5
20260501190057 58 1 6.1 6.1 0.00 0.09 0.09 85 1016.3
20260501185554 58 21 7.0 7.8 0.00 0.09 0.09 86 1016.5
20260501185050 57 25 5.2 12.2 0.00 0.09 0.09 86 1016.6
20260501184546 58 16 3.5 7.8 0.00 0.09 0.09 87 1016.8
20260501184046 57 14 7.8 7.8 0.00 0.09 0.09 89 1016.7
20260501183543 57 12 9.6 11.3 0.00 0.09 0.09 88 1017.1
20260501183039 56 102 1.7 8.7 0.00 0.09 0.09 90 1017.3
20260501182536 57 20 1.7 6.1 0.00 0.09 0.09 91 1017.4
20260501182033 56 28 0.9 4.3 0.00 0.09 0.09 90 1017.6
20260501181530 56 15 6.1 6.1 0.00 0.09 0.09 89 1017.6
20260501181027 56 64 1.7 4.3 0.00 0.09 0.09 90 1017.8
20260501180525 56 106 0.9 2.6 0.00 0.09 0.09 90 1017.9
20260501180021 56 46 1.7 9.6 0.00 0.09 0.09 88 1018.0
20260501175518 56 63 5.2 5.2 0.00 0.09 0.09 89 1017.9
20260501175014 56 102 0.0 2.6 0.00 0.09 0.09 91 1017.7
20260501174512 56 111 1.7 1.7 0.00 0.09 0.09 91 1017.7
20260501174009 56 165 1.7 2.6 0.00 0.09 0.09 91 1017.7
20260501173506 56 21 2.6 3.5 0.00 0.09 0.09 91 1017.9
20260501173003 56 47 0.9 2.6 0.00 0.09 0.09 91 1018.2
20260501172458 56 79 0.9 2.6 0.00 0.09 0.09 91 1018.2
20260501171954 56 136 1.7 1.7 0.00 0.09 0.09 92 1018.3
20260501171450 56 150 3.5 3.5 0.00 0.09 0.09 91 1018.5
20260501170947 56 155 1.7 7.0 0.00 0.09 0.09 92 1018.2
20260501170443 56 139 3.5 5.2 0.00 0.09 0.09 93 1018.4
20260501165941 56 118 4.3 5.2 0.02 0.09 0.09 93 1018.3
20260501165439 55 194 1.7 3.5 0.02 0.09 0.09 94 1018.4
20260501164936 55 49 0.0 3.5 0.00 0.09 0.09 94 1018.8
20260501164434 55 126 1.7 4.3 0.02 0.09 0.09 93 1018.4
20260501163931 55 128 2.6 6.1 0.05 0.09 0.09 93 1019.0
20260501163426 55 70 1.7 4.3 0.05 0.09 0.09 93 1019.1
20260501162923 55 117 2.6 3.5 0.05 0.08 0.08 93 1019.2
20260501162420 55 52 1.7 2.6 0.05 0.08 0.08 94 1019.2
20260501161917 55 60 1.7 1.7 0.02 0.07 0.07 94 1019.3
20260501161414 55 157 1.7 2.6 0.00 0.07 0.07 94 1019.4
20260501160911 55 152 0.0 1.7 0.00 0.07 0.07 93 1019.3
20260501160407 55 70 0.9 3.5 0.00 0.07 0.07 93 1019.5
20260501155905 54 120 1.7 2.6 0.02 0.07 0.07 93 1019.5
20260501155401 55 153 1.7 2.6 0.02 0.07 0.07 93 1019.3
20260501154858 54 129 0.9 1.7 0.02 0.07 0.07 93 1019.0
20260501154356 54 89 1.7 1.7 0.05 0.07 0.07 93 1019.1
20260501153853 54 77 1.7 2.6 0.02 0.06 0.06 93 1019.0